Sandberg, CA

4:19 AM PDT on May 26, 2017 (GMT -0700)
Sandberg

Weather History for KSDB - December, 2013

Change the Weather History Date:

Thursday, December 12, 2013

  Actual Average Record
Temperature  
Mean Temperature 50 °F 42 °F  
Max Temperature 58 °F 48 °F 67 °F (1950)
Min Temperature 42 °F 37 °F 20 °F (1967)
Degree Days  
Heating Degree Days 15 23  
Month to date heating degree days 285 264  
Since 1 July heating degree days 839 1043  
Cooling Degree Days 0 0  
Month to date cooling degree days 0 0  
Year to date cooling degree days 1565 998  
Moisture  
Dew Point 6 °F    
Average Humidity 18    
Maximum Humidity 24    
Minimum Humidity 12    
Precipitation  
Precipitation 0.00 in 0.06 in 1.55 in (2014)
Month to date precipitation T 0.64  
Year to date precipitation 3.61 10.72  
Since 1 July precipitation 0.70  
Sea Level Pressure  
Sea Level Pressure 30.17 in    
Wind  
Wind Speed 16 mph (NE)    
Max Wind Speed 31 mph    
Max Gust Speed 36 mph    
Visibility 10 miles    
Events      
T = Trace of Precipitation, MM = Missing Value Source: NWS Daily Summary

Daily Weather History Graph

Daily Weather History Graph

Search for Another Location

Airport or City:

Trip Planner

Search our weather history database for the weather conditions in past years. The results will help you decide how hot, cold, wet, or windy it might be!

Date:

Astronomy

Dec. 12, 2013 Rise Set
Actual Time 6:53 AM PST 4:44 PM PST
Civil Twilight 6:25 AM PST 5:12 PM PST
Nautical Twilight 5:53 AM PST 5:44 PM PST
Astronomical Twilight 5:22 AM PST 6:14 PM PST
Moon 1:47 PM PST (12/12) 2:28 AM PST (12/12)
Length of Visible Light 10h 47m
Length of Day
9h 51m
Waxing Gibbous, 81% of the Moon is Illuminated
Dec 12
Waxing Gibbous
Dec 17
Full
Dec 25
Last Quarter
Jan 1
New
Jan 7
First Quarter

Hourly Weather History & Observations

Time (PST) Temp. Windchill Dew Point Humidity Pressure Visibility Wind Dir Wind Speed Gust Speed Precip Events Conditions
12:48 AM 43.0 °F 34.5 °F 5.0 °F 21% 30.19 in 10.0 mi ENE 19.6 mph 28.8 mph N/A   Clear
1:48 AM 43.0 °F 34.0 °F 6.1 °F 22% 30.19 in 10.0 mi East 21.9 mph 27.6 mph N/A   Clear
2:48 AM 42.1 °F 33.3 °F 6.1 °F 23% 30.19 in 10.0 mi ENE 19.6 mph 25.3 mph N/A   Clear
3:48 AM 44.1 °F 35.4 °F 8.1 °F 23% 30.18 in 10.0 mi East 21.9 mph - N/A   Clear
4:48 AM 43.0 °F 34.2 °F 8.1 °F 24% 30.19 in 10.0 mi East 20.7 mph - N/A   Clear
5:48 AM 42.1 °F 33.6 °F 7.0 °F 24% 30.19 in 10.0 mi ENE 18.4 mph - N/A   Clear
6:48 AM 43.0 °F 35.4 °F 7.0 °F 23% 30.19 in 10.0 mi ENE 16.1 mph - N/A   Mostly Cloudy
7:48 AM 45.0 °F 38.5 °F 7.0 °F 21% 30.20 in 10.0 mi ENE 13.8 mph - N/A   Mostly Cloudy
8:48 AM 48.0 °F - 8.1 °F 20% 30.22 in 10.0 mi ENE 11.5 mph - N/A   Clear
9:48 AM 51.1 °F - 8.1 °F 18% 30.21 in 10.0 mi ENE 16.1 mph 24.2 mph N/A   Clear
10:48 AM 54.0 °F - 8.1 °F 16% 30.20 in 10.0 mi East 11.5 mph 18.4 mph N/A   Clear
11:48 AM 55.9 °F - 8.1 °F 15% 30.17 in 10.0 mi East 11.5 mph - N/A   Clear
12:48 PM 57.0 °F - 6.1 °F 13% 30.15 in 10.0 mi ENE 10.4 mph 17.3 mph N/A   Clear
1:48 PM 57.9 °F - 6.1 °F 13% 30.12 in 10.0 mi NE 9.2 mph - N/A   Clear
2:48 PM 55.9 °F - 5.0 °F 13% 30.13 in 10.0 mi NE 8.1 mph - N/A   Clear
3:48 PM 52.0 °F - 7.0 °F 16% 30.14 in 10.0 mi NE 6.9 mph - N/A   Clear
4:48 PM 46.9 °F - 8.1 °F 21% 30.15 in 10.0 mi NE 6.9 mph - N/A   Clear
5:48 PM 48.0 °F - 5.0 °F 17% 30.15 in 10.0 mi North 9.2 mph - N/A   Clear
6:48 PM 48.0 °F - 3.0 °F 16% 30.15 in 10.0 mi NNW 15.0 mph - N/A   Clear
7:48 PM 48.9 °F - 3.0 °F 15% 30.15 in 10.0 mi NNW 21.9 mph 28.8 mph N/A   Clear
8:48 PM 48.0 °F - 3.9 °F 16% 30.15 in 10.0 mi NNW 25.3 mph - N/A   Clear
9:48 PM 48.0 °F - 3.0 °F 16% 30.14 in 10.0 mi NNW 19.6 mph - N/A   Clear
10:48 PM 46.9 °F - 3.9 °F 17% 30.13 in 10.0 mi NNW 18.4 mph - N/A   Clear
11:48 PM 46.9 °F - 5.0 °F 18% 30.10 in 10.0 mi NNW 19.6 mph - N/A   Clear